QPF
0.00 0.00 0.00 0.00 0.00 0.02 0.04 0.03 0.04 0.01 0.00 0.00 0.00 0.00 0.00 0.00 0.00 0.00 0.03 0.06 0.11 0.10 0.06 0.01 0.00 0.01 0.02 0.02 0.01 0.00 0.00 0.00 0.00 0.00 0.00 0.00 0.00 0.00 0.00 0.01 0.00 0.00 0.00
0.00 0.00 0.00 0.00 0.00 0.01 0.03 0.01 0.01 0.00 0.00 0.00 0.00 0.00 0.00 0.00 0.00 0.00 0.02 0.04 0.06 0.03 0.00 0.00 0.00 0.00 0.01 0.01 0.00 0.00 0.00 0.00 0.00 0.00 0.00 0.00 0.00 0.00 0.00 0.01 0.01 0.02 0.01
0.00 0.00 0.00 0.00 0.01 0.02 0.03 0.01 0.00 0.00 0.00 0.00 0.00 0.00 0.00 0.00 0.00 0.00 0.01 0.02 0.02 0.00 0.00 0.00 0.00 0.01 0.01 0.00 0.00 0.00 0.00 0.00 0.00 0.00 0.00 0.00 0.00 0.00 0.00 0.00 0.00 0.01 0.01
0.00 0.00 0.00 0.00 0.00 0.01 0.02 0.01 0.00 0.00 0.00 0.00 0.00 0.00 0.01 0.01 0.01 0.01 0.01 0.01 0.00 0.00 0.00 0.00 0.01 0.01 0.01 0.00 0.00 0.00 0.00 0.00 0.00 0.00 0.00 0.00 0.00 0.00 0.00 0.00 0.00 0.00 0.00
0.00 0.00 0.00 0.00 0.01 0.01 0.01 0.00 0.00 0.00 0.00 0.00 0.00 0.00 0.01 0.01 0.01 0.00 0.00 0.00 0.00 0.00 0.00 0.01 0.01 0.00 0.01 0.00 0.00 0.00 0.00 0.00 0.00 0.00 0.01 0.01 0.00 0.01 0.02 0.02 0.01 0.00 0.00
0.00 0.00 0.00 0.00 0.01 0.00 0.00 0.00 0.00 0.00 0.00 0.00 0.01 0.01 0.01 0.00 0.00 0.00 0.00 0.00 0.00 0.00 0.00 0.01 0.01 0.00 0.00 0.00 0.00 0.00 0.00 0.00 0.00 0.00 0.00 0.02 0.03 0.04 0.03 0.03 0.04 0.03 0.01
0.00 0.00 0.00 0.00 0.00 0.00 0.00 0.00 0.00 0.00 0.00 0.00 0.00 0.00 0.00 0.00 0.00 0.00 0.00 0.00 0.00 0.00 0.00 0.01 0.03 0.01 0.00 0.00 0.00 0.00 0.00 0.00 0.00 0.00 0.00 0.00 0.03 0.03 0.02 0.01 0.01 0.01 0.01
0.00 0.00 0.00 0.00 0.00 0.00 0.00 0.00 0.00 0.00 0.00 0.00 0.00 0.00 0.00 0.00 0.00 0.00 0.00 0.00 0.00 0.00 0.00 0.02 0.02 0.00 0.00 0.00 0.00 0.00 0.00 0.00 0.00 0.00 0.00 0.00 0.01 0.01 0.01 0.00 0.00 0.00 0.02
0.00 0.00 0.00 0.00 0.00 0.00 0.00 0.00 0.00 0.00 0.00 0.00 0.00 0.00 0.00 0.00 0.00 0.00 0.00 0.00 0.00 0.00 0.01 0.02 0.01 0.00 0.00 0.00 0.00 0.00 0.00 0.00 0.00 0.00 0.00 0.00 0.00 0.00 0.00 0.00 0.00 0.01 0.01
0.00 0.00 0.00 0.00 0.00 0.00 0.00 0.00 0.00 0.00 0.00 0.00 0.00 0.00 0.00 0.00 0.00 0.00 0.00 0.00 0.00 0.00 0.01 0.01 0.00 0.00 0.00 0.00 0.00 0.00 0.00 0.00 0.00 0.00 0.00 0.01 0.00 0.00 0.00 0.01 0.01 0.01 0.01
0.01 0.01 0.00 0.00 0.00 0.00 0.00 0.00 0.00 0.00 0.00 0.00 0.00 0.00 0.00 0.00 0.00 0.01 0.00 0.00 0.00 0.00 0.00 0.00 0.00 0.00 0.00 0.00 0.00 0.00 0.00 0.00 0.00 0.00 0.01 0.01 0.00 0.00 0.01 0.01 0.01 0.01 0.01
0.01 0.01 0.00 0.00 0.00 0.00 0.00 0.00 0.00 0.00 0.00 0.00 0.00 0.00 0.00 0.00 0.01 0.00 0.01 0.01 0.00 0.00 0.00 0.00 0.00 0.00 0.00 0.00 0.00 0.00 0.00 0.00 0.00 0.00 0.00 0.01 0.00 0.00 0.00 0.01 0.00 0.01 0.01
0.01 0.01 0.00 0.00 0.00 0.00 0.00 0.00 0.00 0.00 0.00 0.00 0.00 0.00 0.00 0.00 0.00 0.00 0.00 0.00 0.00 0.00 0.00 0.00 0.00 0.00 0.00 0.00 0.00 0.00 0.00 0.00 0.00 0.00 0.00 0.01 0.01 0.00 0.00 0.00 0.01 0.00 0.00
0.01 0.01 0.00 0.00 0.00 0.00 0.00 0.00 0.00 0.00 0.00 0.00 0.00 0.00 0.00 0.00 0.00 0.00 0.00 0.00 0.00 0.00 0.00 0.00 0.00 0.00 0.00 0.00 0.00 0.00 0.00 0.00 0.00 0.00 0.00 0.00 0.02 0.02 0.00 0.00 0.00 0.01 0.00
0.01 0.01 0.00 0.00 0.00 0.00 0.00 0.00 0.00 0.00 0.00 0.00 0.00 0.00 0.00 0.00 0.00 0.00 0.00 0.00 0.00 0.00 0.00 0.00 0.00 0.00 0.00 0.00 0.00 0.00 0.00 0.00 0.00 0.00 0.00 0.01 0.00 0.00 0.01 0.01 0.00 0.00 0.00
0.01 0.01 0.00 0.00 0.00 0.00 0.00 0.00 0.00 0.00 0.00 0.00 0.00 0.00 0.00 0.00 0.00 0.00 0.00 0.00 0.00 0.00 0.00 0.00 0.00 0.00 0.00 0.00 0.00 0.00 0.00 0.00 0.00 0.00 0.00 0.00 0.00 0.00 0.00 0.00 0.00 0.00 0.00
0.02 0.02 0.01 0.02 0.01 0.00 0.00 0.00 0.00 0.00 0.00 0.00 0.00 0.00 0.00 0.00 0.00 0.00 0.00 0.00 0.00 0.00 0.00 0.00 0.00 0.00 0.00 0.00 0.00 0.00 0.00 0.00 0.00 0.00 0.00 0.00 0.00 0.00 0.00 0.00 0.01 0.01 0.01
0.05 0.05 0.03 0.07 0.02 0.01 0.00 0.00 0.00 0.00 0.00 0.00 0.00 0.00 0.00 0.00 0.00 0.00 0.00 0.00 0.00 0.00 0.00 0.00 0.00 0.00 0.00 0.00 0.00 0.00 0.00 0.00 0.00 0.00 0.00 0.00 0.00 0.00 0.00 0.00 0.00 0.00 0.00
0.06 0.08 0.05 0.02 0.01 0.00 0.00 0.00 0.00 0.00 0.00 0.00 0.00 0.00 0.00 0.00 0.00 0.00 0.00 0.00 0.00 0.00 0.00 0.00 0.00 0.00 0.00 0.00 0.00 0.00 0.00 0.00 0.00 0.00 0.00 0.00 0.00 0.00 0.00 0.00 0.00 0.00 0.00
0.21 0.17 0.09 0.04 0.02 0.01 0.01 0.02 0.01 0.00 0.00 0.00 0.00 0.00 0.00 0.00 0.00 0.00 0.00 0.00 0.00 0.00 0.00 0.00 0.00 0.00 0.00 0.00 0.00 0.00 0.00 0.00 0.00 0.00 0.00 0.00 0.00 0.00 0.00 0.00 0.00 0.00 0.00
0.23 0.17 0.09 0.05 0.04 0.02 0.02 0.02 0.00 0.00 0.00 0.00 0.00 0.00 0.00 0.00 0.00 0.00 0.00 0.00 0.00 0.00 0.00 0.00 0.00 0.00 0.00 0.00 0.00 0.00 0.00 0.00 0.00 0.00 0.00 0.00 0.00 0.00 0.00 0.00 0.00 0.00 0.00
0.18 0.08 0.10 0.06 0.04 0.05 0.07 0.04 0.03 0.00 0.00 0.00 0.00 0.00 0.00 0.00 0.00 0.00 0.00 0.00 0.00 0.00 0.00 0.00 0.00 0.00 0.00 0.00 0.00 0.00 0.00 0.00 0.00 0.00 0.00 0.00 0.00 0.00 0.00 0.00 0.00 0.00 0.00
0.19 0.17 0.15 0.11 0.07 0.08 0.08 0.08 0.05 0.01 0.01 0.01 0.00 0.00 0.00 0.00 0.00 0.00 0.00 0.00 0.00 0.00 0.00 0.00 0.00 0.00 0.00 0.00 0.00 0.00 0.00 0.00 0.00 0.00 0.00 0.00 0.00 0.00 0.00 0.00 0.00 0.00 0.00
0.17 0.16 0.15 0.14 0.15 0.10 0.12 0.08 0.03 0.00 0.00 0.00 0.00 0.00 0.00 0.00 0.00 0.00 0.00 0.00 0.00 0.00 0.00 0.00 0.00 0.00 0.00 0.00 0.00 0.00 0.00 0.00 0.00 0.00 0.00 0.00 0.00 0.00 0.00 0.00 0.00 0.00 0.00
0.14 0.13 0.12 0.16 0.14 0.15 0.14 0.08 0.06 0.01 0.00 0.00 0.00 0.00 0.00 0.00 0.00 0.00 0.00 0.00 0.00 0.00 0.00 0.00 0.00 0.00 0.00 0.00 0.00 0.00 0.00 0.00 0.00 0.00 0.00 0.00 0.00 0.00 0.00 0.00 0.00 0.00 0.00
0.13 0.13 0.11 0.17 0.21 0.18 0.16 0.09 0.08 0.02 0.00 0.00 0.00 0.00 0.00 0.00 0.00 0.00 0.00 0.01 0.01 0.00 0.00 0.00 0.00 0.00 0.00 0.00 0.00 0.00 0.00 0.00 0.00 0.00 0.00 0.00 0.00 0.00 0.00 0.00 0.00 0.00 0.00
MSLP
1010.52 1011.51 1012.06 1012.54 1013.13 1013.61 1014.10 1014.44 1014.83 1015.13 1015.50 1015.87 1016.14 1016.39 1016.78 1016.83 1017.07 1017.09 1017.35 1017.63 1017.86 1018.07 1018.28 1018.53 1018.59 1018.95 1019.01 1019.23 1019.40 1019.49 1019.73 1019.94 1020.04 1020.17 1020.20 1019.98 1019.81 1019.76 1019.69 1019.67 1019.59 1019.55 1019.52
1010.29 1011.42 1012.08 1012.67 1013.23 1013.75 1014.26 1014.66 1015.05 1015.35 1015.82 1016.18 1016.36 1016.62 1017.02 1017.16 1017.39 1017.43 1017.70 1017.95 1018.19 1018.37 1018.75 1018.88 1019.09 1019.33 1019.54 1019.77 1019.90 1020.04 1020.29 1020.35 1020.37 1020.45 1020.55 1020.45 1020.24 1020.24 1020.17 1020.21 1020.12 1020.02 1020.03
1010.51 1011.41 1012.17 1012.77 1013.38 1013.92 1014.43 1014.89 1015.24 1015.67 1016.16 1016.41 1016.61 1016.87 1017.21 1017.45 1017.70 1017.79 1018.12 1018.29 1018.47 1018.77 1019.12 1019.31 1019.65 1019.88 1020.17 1020.33 1020.44 1020.44 1020.59 1020.57 1020.67 1020.84 1020.90 1020.97 1020.85 1020.70 1020.67 1020.65 1020.66 1020.55 1020.52
1010.59 1011.48 1012.25 1012.92 1013.49 1014.07 1014.58 1015.10 1015.50 1015.92 1016.37 1016.64 1016.93 1017.13 1017.39 1017.66 1017.97 1018.17 1018.49 1018.72 1018.98 1019.24 1019.56 1019.91 1020.24 1020.45 1020.67 1020.79 1020.86 1020.92 1020.93 1020.91 1021.06 1021.23 1021.35 1021.36 1021.27 1021.22 1021.16 1021.19 1021.15 1021.18 1021.12
1010.90 1011.53 1012.32 1013.05 1013.64 1014.23 1014.76 1015.29 1015.75 1016.18 1016.60 1016.90 1017.20 1017.42 1017.74 1018.05 1018.26 1018.54 1018.91 1019.25 1019.53 1019.74 1020.13 1020.47 1020.74 1020.97 1021.11 1021.22 1021.35 1021.40 1021.45 1021.46 1021.64 1021.80 1021.87 1021.92 1021.88 1021.74 1021.58 1021.63 1021.67 1021.71 1021.69
1011.08 1011.74 1012.53 1013.13 1013.83 1014.38 1014.89 1015.48 1015.98 1016.44 1016.82 1017.19 1017.45 1017.70 1018.03 1018.42 1018.77 1019.03 1019.45 1019.70 1019.96 1020.16 1020.49 1020.84 1021.21 1021.47 1021.59 1021.67 1021.73 1021.73 1021.83 1022.02 1022.32 1022.39 1022.47 1022.49 1022.32 1022.14 1022.08 1022.15 1022.16 1022.10 1022.13
1010.96 1011.94 1012.70 1013.28 1014.00 1014.53 1015.11 1015.72 1016.21 1016.66 1017.06 1017.47 1017.72 1018.02 1018.32 1018.88 1019.27 1019.50 1019.80 1020.11 1020.33 1020.56 1020.84 1021.25 1021.64 1021.93 1022.05 1022.02 1021.99 1022.11 1022.27 1022.64 1022.94 1023.07 1023.02 1023.03 1022.92 1022.74 1022.73 1022.70 1022.65 1022.63 1022.57
1011.10 1012.14 1012.91 1013.55 1014.11 1014.74 1015.25 1015.89 1016.38 1016.85 1017.26 1017.67 1018.02 1018.38 1018.73 1019.24 1019.61 1019.91 1020.11 1020.47 1020.69 1020.90 1021.23 1021.70 1022.04 1022.32 1022.45 1022.41 1022.45 1022.54 1022.82 1023.20 1023.43 1023.47 1023.57 1023.55 1023.45 1023.48 1023.41 1023.36 1023.28 1023.22 1023.14
1011.41 1012.29 1013.14 1013.78 1014.35 1014.95 1015.49 1016.03 1016.60 1017.07 1017.51 1017.88 1018.33 1018.77 1019.16 1019.55 1019.87 1020.23 1020.46 1020.81 1021.12 1021.37 1021.75 1022.15 1022.47 1022.67 1022.78 1022.84 1022.86 1023.24 1023.41 1023.75 1024.02 1024.17 1024.05 1024.05 1024.10 1024.22 1024.11 1023.93 1023.86 1023.77 1023.71
1011.91 1012.71 1013.26 1013.89 1014.46 1015.14 1015.81 1016.26 1016.82 1017.28 1017.81 1018.24 1018.75 1019.18 1019.49 1019.83 1020.25 1020.57 1020.91 1021.28 1021.62 1021.97 1022.27 1022.59 1022.84 1023.00 1023.20 1023.32 1023.25 1023.73 1023.94 1024.10 1024.50 1024.80 1024.87 1024.77 1024.83 1024.71 1024.71 1024.61 1024.48 1024.32 1024.35
1012.15 1012.79 1013.25 1013.94 1014.50 1015.19 1015.96 1016.65 1017.09 1017.57 1018.11 1018.62 1019.05 1019.35 1019.66 1020.08 1020.58 1020.92 1021.36 1021.57 1022.00 1022.33 1022.68 1022.94 1023.21 1023.42 1023.53 1023.55 1023.49 1023.73 1024.22 1024.67 1025.04 1025.25 1025.35 1025.41 1025.25 1025.30 1025.30 1025.19 1025.13 1025.04 1025.00
1011.83 1012.58 1013.29 1013.79 1014.46 1015.08 1015.87 1016.70 1017.38 1017.87 1018.34 1018.79 1019.10 1019.36 1019.70 1020.26 1020.68 1021.21 1021.68 1021.99 1022.32 1022.70 1022.98 1023.16 1023.35 1023.50 1023.60 1023.69 1023.74 1023.85 1024.51 1025.09 1025.53 1025.81 1025.84 1025.88 1025.68 1025.73 1025.78 1025.75 1025.69 1025.66 1025.61
1011.60 1012.40 1013.14 1013.71 1014.37 1015.00 1015.76 1016.58 1017.33 1017.88 1018.29 1018.67 1018.95 1019.16 1019.86 1020.57 1021.16 1021.64 1022.05 1022.37 1022.84 1023.07 1023.33 1023.57 1023.79 1023.88 1023.78 1023.91 1023.93 1024.41 1025.01 1025.32 1025.89 1026.30 1026.29 1026.19 1026.03 1026.25 1026.24 1026.29 1026.33 1026.21 1026.20
1011.54 1012.16 1012.96 1013.56 1014.31 1014.97 1015.68 1016.42 1017.03 1017.58 1018.14 1018.46 1018.80 1019.04 1019.82 1020.63 1021.27 1021.73 1022.13 1022.51 1022.87 1023.14 1023.36 1023.63 1023.73 1023.82 1024.01 1024.13 1024.28 1024.70 1025.33 1025.80 1026.29 1026.68 1026.80 1026.66 1026.55 1026.60 1026.71 1026.78 1026.74 1026.71 1026.76
1011.30 1011.99 1012.68 1013.45 1014.18 1014.88 1015.50 1016.20 1016.71 1017.27 1017.75 1018.17 1018.65 1018.98 1019.63 1020.47 1021.11 1021.67 1022.16 1022.51 1022.76 1023.09 1023.34 1023.68 1023.98 1024.26 1024.47 1024.53 1024.75 1025.23 1025.66 1026.03 1026.63 1026.97 1027.11 1027.14 1027.01 1027.00 1027.06 1027.06 1027.13 1027.12 1027.05
1011.01 1011.74 1012.32 1013.22 1014.02 1014.65 1015.44 1015.89 1016.41 1016.90 1017.53 1018.06 1018.49 1018.99 1019.64 1020.32 1020.93 1021.41 1021.90 1022.36 1022.79 1023.11 1023.41 1023.82 1024.28 1024.68 1025.03 1025.10 1025.36 1025.52 1026.00 1026.39 1026.88 1027.18 1027.45 1027.58 1027.49 1027.47 1027.49 1027.48 1027.53 1027.48 1027.50
1010.58 1011.32 1012.13 1012.92 1013.65 1014.60 1015.31 1015.73 1016.25 1016.82 1017.38 1018.06 1018.43 1018.99 1019.62 1020.10 1020.68 1021.22 1021.76 1022.32 1022.79 1023.15 1023.54 1023.97 1024.38 1024.87 1025.36 1025.52 1025.85 1026.00 1026.40 1026.69 1026.91 1027.29 1027.66 1027.87 1027.96 1028.04 1028.01 1027.87 1027.81 1027.90 1027.86
1010.26 1011.13 1011.87 1012.83 1013.67 1014.56 1015.30 1015.67 1016.27 1016.82 1017.43 1018.04 1018.52 1019.02 1019.57 1020.11 1020.66 1021.35 1021.86 1022.38 1022.69 1023.17 1023.61 1024.16 1024.69 1025.36 1025.86 1026.13 1026.37 1026.49 1026.77 1026.90 1027.07 1027.42 1027.47 1027.83 1028.13 1028.39 1028.40 1028.38 1028.41 1028.40 1028.32
1009.71 1010.71 1011.65 1012.55 1013.48 1014.28 1015.13 1015.64 1016.37 1017.03 1017.55 1018.13 1018.61 1019.09 1019.55 1020.11 1020.71 1021.37 1021.93 1022.41 1022.74 1023.29 1023.85 1024.21 1024.86 1025.38 1025.97 1026.29 1026.59 1026.78 1026.93 1027.10 1027.28 1027.38 1027.77 1027.92 1028.16 1028.54 1028.61 1028.68 1028.76 1028.77 1028.74
1009.63 1010.35 1011.49 1012.59 1013.34 1014.18 1015.16 1015.90 1016.35 1017.19 1017.75 1018.20 1018.72 1019.17 1019.56 1020.17 1020.74 1021.39 1022.02 1022.48 1022.93 1023.47 1024.05 1024.46 1024.98 1025.38 1025.98 1026.35 1026.71 1027.01 1027.24 1027.28 1027.34 1027.65 1027.85 1027.98 1028.15 1028.31 1028.65 1028.80 1028.95 1028.97 1028.95
1009.59 1010.46 1011.44 1012.40 1013.13 1013.91 1014.80 1015.78 1016.38 1016.84 1017.56 1018.29 1018.76 1019.18 1019.62 1020.17 1020.76 1021.32 1022.01 1022.60 1023.10 1023.74 1024.15 1024.42 1025.03 1025.54 1026.09 1026.45 1027.05 1027.51 1027.51 1027.54 1027.60 1027.72 1027.87 1028.10 1028.18 1028.34 1028.42 1028.59 1028.95 1029.09 1029.12
1009.72 1010.54 1011.41 1012.02 1012.76 1013.59 1014.40 1015.47 1016.15 1016.69 1017.35 1017.92 1018.64 1019.22 1019.64 1020.13 1020.66 1021.24 1021.89 1022.64 1023.18 1023.81 1024.17 1024.57 1024.93 1025.63 1026.08 1026.42 1027.02 1027.47 1028.02 1028.20 1027.93 1027.94 1027.91 1028.00 1028.28 1028.30 1028.43 1028.47 1028.62 1028.88 1029.11
1011.29 1011.00 1011.08 1011.77 1012.42 1013.40 1014.36 1015.36 1016.13 1016.94 1017.52 1018.01 1018.63 1019.26 1019.74 1020.18 1020.69 1021.21 1021.83 1022.49 1023.14 1023.69 1024.21 1024.58 1024.95 1025.42 1026.12 1026.37 1026.68 1026.95 1027.47 1027.79 1028.10 1028.13 1028.08 1028.19 1028.14 1028.34 1028.43 1028.44 1028.54 1028.64 1028.81
1012.76 1012.34 1011.41 1011.68 1012.47 1013.20 1014.04 1014.73 1015.55 1016.19 1016.84 1017.47 1018.19 1019.01 1019.63 1020.21 1020.74 1021.25 1021.76 1022.29 1022.97 1023.48 1024.09 1024.46 1024.78 1025.30 1025.74 1026.37 1026.80 1026.84 1027.04 1027.22 1027.85 1028.44 1028.28 1028.24 1028.12 1028.32 1028.33 1028.51 1028.56 1028.64 1028.69
1013.87 1013.58 1012.53 1011.85 1012.43 1013.08 1013.57 1014.49 1015.25 1015.82 1016.66 1017.34 1018.16 1018.88 1019.66 1020.09 1020.66 1021.20 1021.71 1022.25 1022.79 1023.26 1023.87 1024.26 1024.80 1025.28 1025.77 1026.31 1026.67 1026.99 1027.24 1027.24 1027.31 1027.72 1028.50 1028.50 1028.23 1028.14 1028.11 1028.32 1028.48 1028.54 1028.59
1015.29 1014.23 1013.81 1013.11 1013.31 1012.96 1013.35 1014.28 1014.62 1015.28 1016.18 1017.04 1017.84 1018.55 1019.28 1020.04 1020.74 1021.34 1021.77 1022.17 1022.55 1023.09 1023.57 1024.16 1024.57 1025.20 1025.63 1025.88 1026.25 1026.56 1026.97 1027.31 1027.46 1027.65 1028.15 1028.36 1028.37 1028.24 1028.05 1028.06 1028.23 1028.34 1028.42
Thickness
5750 5747 5745 5743 5741 5739 5737 5736 5735 5734 5733 5732 5732 5732 5730 5731 5730 5731 5730 5729 5728 5727 5726 5725 5726 5724 5725 5724 5724 5725 5724 5724 5724 5723 5723 5725 5725 5724 5725 5724 5724 5722 5721
5753 5746 5743 5740 5738 5736 5734 5733 5731 5731 5730 5729 5730 5730 5728 5729 5728 5729 5728 5727 5726 5726 5724 5724 5723 5722 5722 5721 5722 5722 5722 5722 5723 5723 5722 5722 5723 5722 5723 5722 5721 5720 5719
5749 5744 5740 5738 5734 5732 5730 5729 5728 5728 5727 5727 5728 5728 5727 5727 5727 5727 5726 5725 5725 5723 5722 5721 5720 5719 5718 5718 5719 5721 5721 5722 5722 5721 5720 5720 5720 5721 5721 5720 5718 5718 5717
5747 5742 5738 5735 5732 5728 5726 5724 5724 5724 5724 5724 5724 5726 5726 5726 5725 5725 5723 5723 5722 5721 5720 5718 5716 5716 5716 5717 5718 5719 5720 5721 5720 5719 5718 5718 5718 5718 5718 5717 5716 5715 5714
5743 5740 5736 5732 5729 5725 5723 5720 5719 5719 5720 5720 5721 5723 5724 5724 5723 5723 5721 5720 5719 5718 5716 5715 5714 5714 5714 5715 5715 5716 5717 5717 5716 5716 5716 5716 5716 5716 5716 5714 5714 5712 5712
5739 5735 5732 5730 5725 5723 5720 5718 5715 5716 5716 5716 5719 5720 5721 5721 5720 5720 5718 5717 5717 5716 5715 5714 5712 5711 5712 5712 5714 5715 5715 5714 5712 5713 5712 5712 5713 5713 5713 5712 5711 5710 5710
5739 5733 5729 5726 5722 5720 5717 5714 5713 5713 5713 5713 5715 5717 5718 5717 5716 5717 5716 5715 5715 5714 5713 5711 5710 5709 5710 5711 5713 5713 5712 5711 5709 5709 5709 5709 5709 5710 5710 5710 5709 5709 5708
5735 5729 5725 5722 5720 5717 5715 5711 5711 5710 5710 5710 5712 5713 5714 5713 5713 5713 5714 5713 5713 5713 5712 5710 5708 5707 5708 5709 5710 5711 5710 5707 5707 5707 5707 5706 5707 5706 5706 5706 5707 5706 5706
5730 5725 5721 5718 5716 5713 5712 5710 5708 5707 5707 5707 5709 5709 5710 5710 5711 5711 5711 5710 5710 5710 5709 5707 5706 5706 5706 5708 5709 5707 5707 5705 5704 5704 5704 5704 5703 5702 5702 5703 5703 5703 5702
5724 5721 5718 5715 5713 5710 5708 5707 5704 5704 5703 5704 5704 5705 5707 5708 5708 5708 5708 5707 5706 5706 5705 5704 5704 5705 5704 5705 5707 5704 5704 5704 5701 5699 5699 5700 5699 5699 5699 5699 5699 5700 5699
5718 5718 5716 5713 5711 5708 5705 5702 5701 5701 5701 5700 5702 5703 5704 5705 5704 5705 5705 5705 5704 5703 5702 5703 5703 5703 5704 5705 5706 5705 5703 5700 5698 5696 5696 5695 5696 5695 5695 5695 5695 5695 5695
5714 5714 5713 5713 5710 5707 5704 5700 5698 5698 5697 5698 5700 5702 5702 5702 5702 5701 5701 5702 5701 5700 5700 5701 5702 5702 5703 5704 5705 5705 5700 5697 5695 5693 5692 5692 5692 5692 5691 5691 5691 5690 5690
5710 5709 5710 5709 5707 5706 5703 5699 5697 5696 5695 5696 5699 5700 5700 5697 5696 5696 5696 5698 5697 5697 5697 5698 5698 5700 5701 5702 5703 5701 5698 5696 5692 5689 5689 5689 5690 5688 5687 5687 5686 5686 5685
5703 5704 5704 5705 5703 5702 5701 5697 5696 5696 5695 5695 5697 5699 5696 5695 5694 5693 5694 5694 5694 5695 5696 5696 5697 5698 5698 5699 5699 5699 5693 5691 5688 5686 5686 5686 5686 5685 5684 5682 5682 5681 5680
5698 5699 5700 5700 5700 5697 5697 5696 5696 5695 5695 5695 5696 5697 5696 5693 5691 5691 5691 5692 5692 5693 5694 5694 5693 5693 5694 5695 5694 5693 5689 5689 5685 5683 5683 5682 5682 5681 5680 5680 5678 5678 5677
5694 5695 5697 5695 5694 5693 5693 5694 5694 5694 5693 5693 5695 5694 5692 5691 5690 5690 5689 5690 5690 5690 5690 5690 5689 5688 5687 5688 5688 5688 5685 5684 5681 5679 5679 5677 5677 5677 5676 5675 5674 5673 5672
5693 5693 5693 5691 5690 5689 5688 5689 5690 5691 5691 5690 5691 5690 5689 5689 5688 5688 5688 5686 5686 5686 5686 5685 5685 5683 5682 5682 5682 5682 5680 5680 5677 5676 5675 5674 5673 5672 5671 5670 5670 5668 5668
5687 5686 5687 5686 5684 5682 5682 5683 5684 5684 5686 5685 5686 5686 5686 5686 5685 5684 5683 5683 5683 5683 5682 5681 5680 5678 5676 5676 5676 5676 5676 5675 5674 5673 5672 5670 5669 5667 5667 5665 5664 5662 5662
5685 5683 5680 5680 5678 5678 5677 5676 5677 5676 5678 5680 5679 5680 5681 5681 5680 5679 5679 5679 5679 5678 5677 5677 5675 5673 5670 5671 5671 5671 5671 5671 5670 5669 5668 5667 5665 5663 5663 5661 5659 5658 5657
5678 5676 5673 5671 5672 5672 5670 5669 5670 5670 5670 5672 5673 5674 5675 5675 5675 5674 5673 5673 5673 5673 5671 5671 5670 5669 5667 5667 5667 5666 5666 5666 5667 5666 5664 5664 5663 5661 5660 5658 5656 5655 5654
5671 5667 5665 5664 5667 5666 5664 5663 5664 5666 5667 5666 5666 5668 5669 5669 5669 5669 5668 5668 5667 5667 5667 5666 5665 5664 5662 5663 5659 5658 5660 5662 5662 5661 5661 5660 5660 5659 5658 5657 5655 5653 5651
5663 5664 5662 5662 5664 5663 5662 5660 5660 5662 5661 5661 5660 5660 5662 5663 5664 5664 5663 5662 5661 5660 5661 5661 5661 5659 5659 5660 5655 5653 5648 5651 5655 5657 5658 5658 5657 5657 5656 5655 5654 5651 5649
5638 5651 5657 5657 5660 5659 5656 5653 5652 5651 5652 5653 5653 5653 5654 5656 5657 5657 5657 5656 5655 5655 5655 5656 5657 5656 5652 5655 5656 5655 5649 5648 5648 5652 5655 5654 5655 5655 5654 5653 5652 5650 5647
5616 5628 5648 5650 5651 5653 5651 5651 5651 5653 5653 5654 5652 5650 5649 5648 5649 5649 5649 5650 5649 5650 5651 5651 5651 5651 5651 5648 5649 5653 5653 5653 5646 5642 5649 5651 5654 5653 5652 5650 5649 5647 5645
5600 5611 5627 5643 5645 5645 5648 5647 5647 5648 5647 5647 5645 5643 5641 5641 5642 5642 5642 5643 5643 5644 5644 5644 5645 5645 5645 5644 5645 5645 5646 5648 5651 5647 5639 5643 5649 5651 5650 5648 5647 5645 5643
5580 5598 5608 5622 5627 5639 5643 5641 5645 5646 5644 5642 5641 5640 5638 5637 5636 5635 5635 5636 5637 5638 5639 5638 5639 5638 5639 5641 5642 5643 5642 5641 5643 5644 5639 5639 5642 5644 5647 5646 5644 5643 5641